EHI
0 0 0 0 0 0 0 0 0 0 0 0 0 0 0 0 0 0 0 0 0 0 0 0 0 0 0 0 1 4 5 3 2 1 1 2 3 2 1 0 0 0 0 0
0 0 0 0 0 0 0 0 0 0 0 0 0 0 0 0 0 0 0 0 0 0 0 0 0 0 0 0 1 2 4 4 3 2 1 1 2 1 0 0 0 0 0 0
0 0 0 0 0 0 0 0 0 0 0 0 0 0 0 0 0 0 0 0 0 0 0 0 0 0 0 1 1 1 2 3 3 3 2 1 1 1 0 0 0 0 0 0
0 0 0 0 0 0 0 0 0 0 0 0 0 0 0 0 0 0 0 0 0 0 0 0 0 0 0 1 2 2 1 1 2 3 3 2 1 1 0 0 0 0 0 0
0 0 0 0 0 0 0 0 0 0 0 0 0 0 0 0 0 0 0 0 0 0 0 0 0 0 0 1 2 2 1 0 1 3 3 2 1 1 0 0 0 0 0 0
0 0 0 0 0 0 0 0 0 0 0 0 0 0 0 0 0 0 0 0 0 0 0 0 0 0 0 0 1 2 1 0 1 2 3 3 1 0 0 0 0 0 0 0
0 0 0 0 0 0 0 0 0 0 0 0 0 0 0 0 0 0 0 0 0 0 0 0 0 0 0 0 0 1 1 0 1 2 3 3 2 2 2 1 1 1 0 0
0 0 0 0 0 0 0 0 0 0 0 0 0 0 0 0 0 0 0 0 0 0 0 0 0 0 0 0 0 0 0 0 0 1 1 2 2 2 2 2 2 2 1 0
0 0 0 0 0 0 0 0 0 0 0 0 0 0 0 0 0 0 0 0 0 0 0 0 0 0 0 0 0 0 0 0 0 1 1 1 1 1 1 2 3 3 2 1
0 0 0 0 0 0 0 0 0 0 0 0 0 0 0 0 0 0 0 0 0 0 0 0 0 0 0 0 0 1 1 1 1 2 2 1 0 0 0 1 2 2 2 2
0 0 0 0 0 0 0 0 0 0 0 0 0 0 0 0 0 0 0 0 0 0 0 0 0 0 0 0 0 1 2 2 1 2 3 2 1 0 0 0 1 1 1 2
0 0 0 0 0 0 0 0 0 0 0 0 0 0 0 0 0 0 0 0 0 0 0 0 0 0 0 0 0 0 1 2 1 2 3 3 1 0 0 0 0 0 0 1
0 0 0 0 0 0 0 0 0 0 0 0 0 0 0 0 0 0 0 0 0 0 0 0 0 0 0 0 0 0 0 1 2 3 3 3 2 0 0 0 0 0 0 0
0 0 0 0 0 0 0 0 0 0 0 0 0 0 0 0 0 0 0 0 0 0 0 0 0 0 0 0 0 0 0 0 1 2 3 2 1 0 0 0 0 0 0 0
0 0 0 0 0 0 0 0 0 0 0 0 0 0 0 0 0 0 0 0 0 0 0 0 0 0 0 0 0 0 0 0 0 1 1 1 0 0 0 0 0 0 0 0
0 0 0 0 0 0 0 0 0 0 0 0 0 0 0 0 0 0 0 0 0 0 0 0 0 0 0 0 0 0 0 0 0 0 0 0 0 0 0 0 0 0 0 0
0 0 0 0 0 0 0 0 0 0 0 0 0 0 0 0 0 0 0 0 0 0 0 0 0 0 0 0 0 0 0 0 0 0 1 0 0 0 0 0 0 0 0 0
0 0 0 0 0 0 0 0 0 0 0 0 0 0 0 0 0 0 0 0 0 0 0 0 0 0 0 0 0 0 0 0 0 0 1 0 0 0 0 0 0 0 0 0
0 0 0 0 0 0 0 0 0 0 0 0 0 0 0 0 0 0 0 0 0 0 0 0 0 0 0 0 0 0 0 0 0 1 1 1 1 0 0 0 0 0 0 0
0 0 0 0 0 0 0 0 0 0 0 0 0 0 0 0 0 0 0 0 0 0 0 0 0 0 0 0 0 0 0 0 0 1 2 2 2 1 0 0 0 0 0 0
0 0 0 0 0 0 0 0 0 0 0 0 0 0 0 0 0 0 0 0 0 0 0 0 0 0 0 0 0 0 0 0 0 0 1 2 2 1 0 0 0 0 0 0
0 0 0 0 0 0 0 0 0 0 0 0 0 0 0 0 0 0 0 0 0 0 0 0 0 0 0 0 0 0 0 0 0 0 0 1 1 0 0 0 0 0 0 0
0 0 0 0 0 0 0 0 0 0 0 0 0 0 0 0 0 0 0 0 0 0 0 0 0 0 0 0 0 0 0 0 0 0 0 0 0 0 0 0 0 0 0 0
0 0 0 0 0 0 0 0 0 0 0 0 0 0 0 0 0 0 0 0 0 0 0 0 0 0 0 0 0 0 0 0 0 0 0 0 0 0 0 0 0 0 0 0
0 0 0 0 0 0 0 0 0 0 0 0 0 0 0 0 0 0 0 0 0 0 0 0 0 0 0 0 0 0 0 0 0 0 0 0 0 0 0 0 0 0 0 0
0 0 0 0 0 0 0 0 0 0 0 0 0 0 0 0 0 0 0 0 0 0 0 0 0 0 0 0 0 0 0 0 0 0 0 0 0 0 0 0 0 0 0 0
Wind_Speed
1 2 7 9 10 12 11 13 16 16 11 10 15 18 16 12 10 11 11 10 11 13 11 9 10 10 11 13 15 16 16 16 14 12 12 11 11 10 9 8 11 12 11 11
2 7 11 9 9 11 12 14 15 14 9 9 12 18 16 13 13 13 13 12 12 11 9 9 10 11 13 15 15 16 17 17 17 13 11 9 8 7 8 7 9 12 12 12
7 7 6 8 10 10 12 12 11 13 12 8 9 13 12 10 12 13 12 11 10 11 11 11 11 12 13 15 17 15 17 18 18 15 10 9 8 6 7 10 10 11 13 13
6 6 6 8 9 8 12 9 11 12 10 6 3 8 7 7 9 11 11 10 11 11 10 10 11 11 13 15 15 16 17 17 17 17 15 16 13 12 11 10 9 11 12 13
7 5 6 8 9 8 8 9 10 10 9 8 5 7 9 4 7 9 9 10 10 10 10 10 11 12 13 14 14 15 16 17 17 18 18 18 14 10 7 8 11 11 11 12
8 5 4 6 7 7 8 6 6 4 3 6 6 6 8 3 6 6 6 7 7 7 7 8 9 9 10 11 12 13 15 17 18 18 19 19 17 13 13 12 13 12 9 10
8 5 3 3 5 4 3 2 3 3 2 6 4 5 8 5 6 7 6 6 5 5 4 5 6 7 9 10 13 14 16 17 17 19 19 20 19 17 17 15 14 12 10 10
6 8 4 3 2 4 3 1 2 3 4 4 3 6 6 5 6 5 5 5 4 4 4 5 6 7 8 10 12 14 16 17 17 18 19 18 18 14 13 14 12 14 12 12
4 8 6 7 4 2 3 3 3 3 3 4 5 5 7 6 8 8 7 7 6 5 4 5 5 6 7 8 11 14 17 16 17 18 17 16 17 16 14 14 12 11 9 10
3 8 8 6 3 2 2 3 2 1 2 4 5 4 4 8 10 10 9 8 8 8 7 6 5 6 6 7 9 12 15 17 17 17 16 14 16 16 14 13 14 13 12 12
2 5 8 5 2 3 2 1 1 2 2 3 5 4 1 5 8 9 9 9 9 9 8 7 6 6 6 6 7 9 12 14 15 16 15 14 14 15 14 13 14 14 13 13
3 3 6 7 5 2 2 1 1 1 4 3 4 6 3 5 8 10 11 11 11 10 8 7 7 5 4 4 5 8 10 12 14 15 14 15 14 13 14 14 14 13 13 14
3 2 5 7 5 4 2 2 1 2 3 3 4 8 5 9 11 11 11 11 11 11 10 8 7 6 4 4 4 6 8 11 12 13 13 13 14 14 15 15 14 13 13 13
5 4 5 7 7 5 6 7 5 3 3 5 8 12 12 13 14 14 12 11 10 10 9 9 8 7 6 5 4 5 6 8 10 12 13 14 15 15 14 13 13 14 13 13
1 5 6 10 11 8 11 12 10 8 8 8 10 11 13 12 11 11 11 11 11 11 11 10 9 9 8 7 6 4 5 6 8 11 13 14 14 12 11 11 12 12 13 13
2 4 4 8 8 10 13 14 12 11 10 11 12 13 9 9 8 9 9 11 11 11 12 11 11 10 9 8 7 5 4 5 7 11 12 12 11 12 12 12 12 12 12 12
3 3 3 7 6 6 10 9 8 7 6 6 8 9 10 10 11 9 9 10 11 12 12 11 11 10 10 9 7 6 5 5 7 9 11 11 12 13 12 12 12 12 12 11
6 4 3 5 3 7 8 4 4 6 7 6 8 9 9 10 10 7 6 8 11 12 12 12 11 11 10 9 7 5 4 5 7 8 9 11 12 12 12 12 12 12 10 11
9 6 4 3 4 9 8 4 3 4 6 5 7 9 9 8 7 5 6 7 9 10 11 11 10 10 10 9 7 4 3 4 6 8 9 10 11 12 13 13 12 10 10 10
4 5 4 4 4 7 6 4 2 1 5 5 4 7 8 7 6 7 9 10 11 11 10 10 10 9 9 8 6 4 3 4 6 8 8 9 11 12 13 13 11 9 9 10
2 3 6 6 7 9 7 3 1 2 7 6 5 6 6 4 6 9 11 12 11 11 11 11 10 9 9 7 5 3 3 4 5 5 7 8 10 11 11 11 10 10 10 10
6 5 6 5 7 10 3 1 4 7 5 5 6 6 6 8 10 10 11 11 11 11 11 10 9 9 8 6 3 2 3 2 4 6 7 8 9 9 9 11 10 10 12 12
8 9 6 9 10 6 3 6 6 5 6 6 6 7 8 9 10 11 10 10 10 11 10 9 8 9 8 6 3 2 2 1 5 6 7 8 9 9 10 11 12 10 10 10
6 4 5 7 10 9 8 7 7 6 7 8 8 8 8 9 10 11 11 10 10 10 10 9 7 8 8 6 4 3 2 2 5 7 7 8 10 10 9 8 9 9 10 10
7 5 5 9 9 8 8 7 8 8 8 8 8 8 8 8 10 10 10 10 9 9 9 8 7 7 8 7 5 4 2 3 6 7 7 8 8 10 9 7 6 7 7 10
8 9 8 10 8 7 8 7 8 8 9 9 9 10 9 8 10 10 10 9 9 9 9 8 7 7 7 6 5 4 2 3 7 7 7 7 7 8 8 9 7 8 8 11
Wind_Direction
272 235 248 249 240 255 275 277 276 278 281 275 263 267 271 268 257 257 255 247 240 235 233 229 222 205 197 197 195 192 189 185 179 177 177 176 179 178 175 175 172 172 170 169
296 251 251 263 271 268 269 275 277 285 284 276 271 271 270 258 250 248 249 245 238 239 232 223 222 207 198 196 195 193 191 187 186 186 182 179 172 175 176 173 175 176 174 173
253 264 285 284 281 273 271 262 268 278 298 280 275 275 257 252 243 244 243 240 233 233 228 220 217 211 200 197 196 196 192 190 190 184 174 167 161 160 174 181 183 183 179 179
276 275 290 284 277 270 278 264 268 277 286 283 252 283 272 253 251 245 245 239 231 231 228 220 215 211 203 202 197 196 195 191 190 185 181 179 183 187 189 183 181 180 182 181
280 287 289 278 273 275 266 282 276 271 270 274 240 257 281 251 252 254 247 242 236 230 226 219 217 215 207 201 198 196 195 194 190 190 187 186 191 189 169 170 175 179 183 183
268 275 269 267 279 270 286 293 288 275 255 260 226 220 278 251 249 269 263 252 247 238 233 228 223 218 211 201 197 194 194 196 192 193 193 192 192 183 175 178 182 183 183 185
318 302 283 286 317 315 327 342 342 334 264 255 228 218 255 273 280 270 274 268 254 241 239 236 225 219 214 203 198 195 195 197 194 194 197 197 195 188 187 184 185 182 182 188
326 309 300 305 284 287 287 234 227 262 257 288 250 237 259 292 307 315 311 304 296 268 249 245 236 223 218 208 202 197 198 198 195 196 199 200 196 193 192 188 186 189 190 190
304 290 299 300 286 239 297 268 255 259 278 272 261 283 301 334 342 343 340 339 330 315 297 272 257 238 224 214 208 203 199 199 196 197 198 198 196 196 194 188 186 189 187 180
248 284 295 306 316 256 235 286 332 294 286 278 286 282 301 341 340 343 345 340 333 329 318 303 276 251 237 223 214 206 202 200 197 196 198 198 196 196 192 186 189 189 185 179
236 270 300 325 306 292 303 337 318 279 268 280 298 288 314 337 336 338 333 331 332 328 323 315 300 272 248 232 216 208 205 201 197 196 197 197 195 194 189 189 191 189 182 180
258 252 279 272 266 270 221 224 147 292 290 270 277 276 323 344 345 344 338 335 333 330 326 322 315 302 273 249 230 214 207 202 199 196 195 197 194 190 191 192 190 186 183 183
274 256 309 326 337 356 323 284 279 270 257 256 260 278 334 347 342 340 335 332 333 332 330 333 333 325 302 276 250 227 213 207 200 192 192 194 192 190 193 192 187 184 184 182
285 229 215 243 260 277 285 284 276 241 250 264 256 282 312 329 330 330 330 330 333 335 333 337 338 331 319 297 267 237 225 211 199 190 190 193 193 193 192 188 185 184 183 182
268 255 243 253 264 263 263 271 266 244 238 248 272 283 296 312 315 317 324 330 337 339 340 339 336 329 323 316 298 264 236 217 199 191 191 194 194 189 182 180 182 182 182 183
239 258 271 272 264 266 267 265 261 255 248 251 271 278 288 305 314 317 323 328 332 334 332 331 332 328 321 314 301 279 251 226 200 194 193 190 185 180 178 178 176 177 179 178
243 242 276 276 294 296 266 252 243 243 236 237 257 273 307 316 318 315 319 326 325 325 325 325 323 318 312 306 297 273 248 227 200 194 188 183 179 178 177 173 172 176 176 173
221 226 244 277 316 257 250 240 239 252 256 247 261 280 294 294 297 292 306 318 319 321 319 318 317 316 312 307 300 282 250 220 199 190 184 180 176 175 171 171 174 175 171 170
206 208 228 244 262 275 282 261 220 234 271 254 262 285 297 304 305 299 314 315 307 307 307 308 307 306 307 307 302 287 243 213 194 186 182 177 173 171 168 171 172 167 165 165
185 199 215 226 244 256 258 261 258 151 281 274 271 289 304 328 329 308 319 318 315 313 313 313 312 311 312 310 306 286 239 206 196 187 180 173 169 169 169 169 165 158 158 158
181 212 220 228 243 263 258 264 83 180 258 286 285 286 296 287 266 285 305 309 310 310 312 318 317 315 313 312 307 285 249 215 199 175 165 164 164 165 163 156 153 151 150 147
197 203 214 206 226 252 247 157 198 230 261 284 287 286 289 288 291 300 305 307 314 317 318 322 321 319 317 316 313 297 268 223 168 155 154 157 157 154 151 146 146 149 148 145
211 202 198 205 225 248 236 231 245 249 267 275 280 287 291 294 297 303 305 307 311 312 314 315 316 320 321 320 315 297 286 196 153 149 151 151 149 148 149 149 149 149 151 149
250 212 213 247 257 258 263 267 267 260 263 273 277 284 288 289 293 298 301 303 308 309 310 312 319 324 323 322 318 300 279 194 155 151 149 147 146 144 146 147 152 154 156 153
226 208 225 249 265 282 271 255 262 274 280 284 285 282 278 281 287 289 294 297 299 302 304 308 310 313 315 319 314 302 268 174 154 148 145 143 144 144 142 140 144 152 161 163
202 204 218 243 242 243 264 271 275 280 283 283 286 289 285 276 277 286 289 291 294 298 304 306 308 309 312 314 306 293 254 170 151 146 146 145 142 140 138 130 109 90 121 132